Location: Middelsbur
(53.6609°N, 7.5020°E)
Time: 23:19:49
(UTC+00:00)

CREW DRAGON DEMO-1 DEB - Pass Details

Date: 06 July 2020
Orbit: 369 x 372 km, 51.6° (Epoch: 03 August)

Event Time Altitude Azimuth Distance (km) Brightness Sun altitude
Exits shadow 22:49:31 26° 189° (S) 779 3.9 -13.1°
Maximum altitude 22:50:21 30° 157° (SSE) 689 3.6 -13.2°
Drops below altitude 10° 22:53:07 10° 93° (E) 1,372 5.5 -13.2°
Sets 22:55:16 0° 83° (E) 2,222 6.7 -13.3°
